Weather in Krukenichi

Ukraine / Lviv District     49°41′07″N   23°09′14″E
temp.,
°C
wind,
m/s
gust,
m/s
humid.,
%
clouds,
%
prec.,
mm/h
press.,
hPa
HPBL,
m
24 may, tue
tue2400:00+8sse22905 0.0 101322
03:00+7se33914 0.0 101341
06:00+6se379425 0.0 1013120
09:00+12se5874100 0.0 1013411
12:00+17se6659100 0.0 1012947
15:00+19se5653100 0.0 10111223
18:00+19ese5863100 0.0 1011725
21:00+15ese4974100 0.0 1012216
25 may, wed
wed2500:00+14se497391 0.0 1013241
03:00+13se3576100 0.0 1013145
06:00+13se2478100 0.0 1013109
09:00+14se3481100 0.0 1014137
12:00+18se3366100 0.0 1014377
15:00+21ese226491 0.1 1013716
18:00+18sw2282100 0.9 101317
21:00+14wnw61196100 16.8 1015462
26 may, thu
thu2600:00+12wnw51195100 0.6 1018474
03:00+10w389819 0.6 1019228
06:00+10w34976 0.0 101994
09:00+15w468539 0.0 1019462
12:00+19wnw51055100 0.0 10192066
15:00+21wnw6104815 0.0 10182292
18:00+20wnw6105912 0.0 10181305
21:00+17wsw497099 0.0 1018241
27 may, fri
fri2700:00+13wsw49774 0.0 1019184
03:00+12wsw348410 0.0 101958
06:00+12sw35870 0.0 101898
09:00+17sw46700 0.0 1016449
12:00+21wsw585426 0.0 10141881
15:00+22wsw61059100 0.0 10111782
18:00+19wnw71272100 0.3 1009592
21:00+10wnw41083100 0.6 1014809
28 may, sat
sat2800:00+9wsw4993100 0.8 1014522
03:00+8wsw41095100 0.9 1013303
06:00+7wsw4109352 0.0 1013258
09:00+11w712722 0.0 10131199
12:00+13wnw8115965 0.4 10131709
15:00+15wnw91245100 0.5 10132292
18:00+14wnw69535 0.0 10131697
21:00+10w33704 0.0 101448